Weather History for KTRI - August, 2014

Change the Weather History Date:

Saturday, August 30, 2014

  Actual Average Record
Temperature  
Mean Temperature 78 °F 72 °F  
Max Temperature 92 °F 84 °F 95 °F (1953)
Min Temperature 64 °F 61 °F 46 °F (1986)
Degree Days  
Heating Degree Days 0 0  
Month to date heating degree days 0 0  
Since 1 June heating degree days 0 11  
Since 1 July heating degree days 0 0  
Cooling Degree Days 13 7  
Month to date cooling degree days 258 264  
Year to date cooling degree days 946 842  
Since 1 June cooling degree days 812 769  
Growing Degree Days 28 (Base 50)    
Moisture  
Dew Point 64 °F    
Average Humidity 64    
Maximum Humidity 93    
Minimum Humidity 34    
Precipitation  
Precipitation 0.00 in 0.10 in 2.26 in (1940)
Month to date precipitation 3.60 3.37  
Year to date precipitation 24.43 29.35  
Snow  
Snow 0.00 in 0.00 in - ()
Month to date snowfall 0.0 0.0  
Since 1 June snowfall 0.0 0.0  
Since 1 July snowfall 0.0 0.0  
Snow Depth 0.00 in    
Sea Level Pressure  
Sea Level Pressure 30.10 in    
Wind  
Wind Speed 2 mph (ESE)    
Max Wind Speed 8 mph    
Max Gust Speed 12 mph    
Visibility 8 miles    
Events      
T = Trace of Precipitation, MM = Missing Value Source: NWS Daily Summary

Daily Weather History Graph

Daily Weather History Graph

Search for Another Location

Airport or City:

Trip Planner

Search our weather history database for the weather conditions in past years. The results will help you decide how hot, cold, wet, or windy it might be!

Date:

Astronomy

Aug. 30, 2014 Rise Set
Actual Time 6:59 AM EDT 8:00 PM EDT
Civil Twilight 6:32 AM EDT 8:26 PM EDT
Nautical Twilight 6:01 AM EDT 8:58 PM EDT
Astronomical Twilight 5:28 AM EDT 9:30 PM EDT
Moon 11:36 AM EDT (8/30) 10:43 PM EDT (8/30)
Length of Visible Light 13h 54m
Length of Day
13h 01m
Waxing Crescent, 23% of the Moon is Illuminated
Aug 30
Waxing Crescent
Sep 2
First Quarter
Sep 8
Full
Sep 15
Last Quarter
Sep 24
New

Hourly Weather History & Observations

Time (EDT) Temp. Heat Index Dew Point Humidity Pressure Visibility Wind Dir Wind Speed Gust Speed Precip Events Conditions
12:46 AM 69.1 °F - 66.0 °F 90% 30.17 in 1.8 mi Calm Calm - N/A   Clear
12:53 AM 68.0 °F - 66.0 °F 93% 30.10 in 3.0 mi Calm Calm - N/A   Clear
1:53 AM 69.1 °F - 66.0 °F 90% 30.10 in 8.0 mi Calm Calm - N/A   Clear
2:53 AM 68.0 °F - 64.9 °F 90% 30.09 in 6.0 mi Calm Calm - N/A   Clear
3:53 AM 66.9 °F - 64.9 °F 93% 30.10 in 3.0 mi Calm Calm - N/A   Scattered Clouds
4:53 AM 68.0 °F - 64.9 °F 90% 30.10 in 4.0 mi NE 3.5 mph - N/A   Scattered Clouds
5:53 AM 66.0 °F - 64.0 °F 93% 30.12 in 4.0 mi Calm Calm - N/A   Partly Cloudy
6:32 AM 64.9 °F - 63.0 °F 93% 30.20 in 1.5 mi NE 3.5 mph - N/A   Clear
6:53 AM 64.9 °F - 63.0 °F 93% 30.12 in 7.0 mi Calm Calm - N/A   Partly Cloudy
6:55 AM 64.9 °F - 63.0 °F 93% 30.20 in 10.0 mi Calm Calm - N/A   Partly Cloudy
7:11 AM 64.9 °F - 63.0 °F 93% 30.20 in 10.0 mi North 3.5 mph - N/A   Partly Cloudy
7:53 AM 66.9 °F - 64.0 °F 90% 30.14 in 10.0 mi Calm Calm - N/A   Clear
8:53 AM 72.0 °F - 66.0 °F 81% 30.14 in 10.0 mi ENE 3.5 mph - N/A   Clear
9:53 AM 77.0 °F - 66.9 °F 71% 30.14 in 10.0 mi Calm Calm - N/A   Clear
10:53 AM 81.0 °F 83.3 °F 66.9 °F 62% 30.13 in 10.0 mi ENE 3.5 mph - N/A   Clear
11:53 AM 84.9 °F 85.9 °F 63.0 °F 48% 30.12 in 10.0 mi Variable 4.6 mph - N/A   Clear
12:53 PM 88.0 °F 87.6 °F 60.1 °F 39% 30.10 in 10.0 mi SSE 3.5 mph - N/A   Partly Cloudy
1:53 PM 90.0 °F 88.6 °F 57.0 °F 33% 30.09 in 10.0 mi Variable 3.5 mph - N/A   Mostly Cloudy
2:53 PM 91.0 °F 90.2 °F 59.0 °F 34% 30.07 in 10.0 mi Calm Calm - N/A   Mostly Cloudy
3:53 PM 88.0 °F 88.7 °F 63.0 °F 43% 30.05 in 10.0 mi North 3.5 mph - N/A   Mostly Cloudy
4:53 PM 86.0 °F 87.6 °F 64.9 °F 49% 30.04 in 10.0 mi SSE 3.5 mph - N/A   Overcast
5:53 PM 84.9 °F 86.6 °F 64.9 °F 51% 30.03 in 10.0 mi Variable 3.5 mph - N/A   Mostly Cloudy
6:53 PM 84.0 °F 85.4 °F 64.0 °F 51% 30.04 in 10.0 mi SSE 3.5 mph - N/A   Overcast
7:53 PM 81.0 °F 81.9 °F 62.1 °F 52% 30.05 in 10.0 mi South 4.6 mph - N/A   Overcast
8:53 PM 81.0 °F 81.7 °F 61.0 °F 50% 30.06 in 10.0 mi SSE 4.6 mph - N/A   Overcast
9:53 PM 80.1 °F 81.2 °F 62.1 °F 54% 30.08 in 10.0 mi South 4.6 mph - N/A   Overcast
10:53 PM 77.0 °F - 63.0 °F 62% 30.08 in 10.0 mi Calm Calm - N/A   Mostly Cloudy
11:53 PM 73.9 °F - 64.9 °F 73% 30.07 in 10.0 mi Calm Calm - N/A   Overcast